Content
SEND FEEDBACK

Daily
Averages
Monthly
Summary
United Kingdom

YORK, ENGLAND


Home > Europe > United Kingdom > England
Elevation: 27 feet     Latitude: 53 50N     Longitude: 001 11W

WEATHER
 
SELECT A DAY
Number of Records: 48,838;   Date Range: 6/27/01 - 12/19/13
 
SHARE

PRINT THIS DATA

[ ← Previous Day ]
WEATHER ALMANAC - APRIL 5, 2013
[ Next Day → ]
[ °C ]   °F
Weather ElementAverageHighLow
Temperature38.5 °F47 °F (12:50 pm)28.4 °F (1:50 am)
Dewpoint25 °F32 °F (8:50 am)17 °F (12:50 pm)
Humidity60.6 %100 % (1:50 am)18 % (12:50 pm)
Barometer30.13 in30.23 in (9:50 pm)30.09 in (12:50 am)
Wind Speed13.3 mph18.4 mph (11:50 am)
Weather ElementAverage
Visibility11.2 mi
Wind DirectionESE (128.1 °)

Weather ElementTotal
Precipitation---
Heating Degree Days27.3 (Base 65)
Averaged from 31 records on April 5, 2013
WEATHER CONDITIONS BREAKOUT
WIND DIRECTION BREAKOUT
WEATHER BY HOUR - APRIL 5, 2013
[ °C ]   °F
Local TimeTemperatureDewpointHumidityBarometerVisibilityWind DirectionWind SpeedGust SpeedPrecipitationEventsConditions
12:50 AM30.2 °F28.4 °F93 %30.09 in6.2 miNorth (360°)9.2 mph
1:50 AM28.4 °F28.4 °F100 %30.09 in6.2 miNorth (350°)8.1 mph
2:50 AM30.2 °F28.4 °F93 %30.09 in6.2 miNNW (340°)9.2 mph
3:50 AM31.0 °F29.0 °F90 %30.10 in17.0 miNorth10.4 mph
3:50 AM32.0 °F28.4 °F87 %30.09 in6.2 miNorth (360°)10.4 mph
4:50 AM30.2 °F28.4 °F93 %30.09 in6.2 miNorth (350°)9.2 mph
5:50 AM28.4 °F26.6 °F93 %30.09 in6.2 miNNW (340°)8.1 mph
6:50 AM30.2 °F28.4 °F93 %30.09 in6.2 miNNW (340°)8.1 mph
6:50 AM30.0 °F29.0 °F92 %30.11 in15.0 miNNW (340°)8.1 mph
7:50 AM33.8 °F30.2 °F87 %30.09 in6.2 miNNW (330°)9.2 mphPartly Cloudy
8:50 AM39.2 °F32.0 °F75 %30.12 in6.2 miNorth (10°)12.7 mphPartly Cloudy
9:50 AM42.0 °F29.0 °F47 %30.14 in31.0 miNNE (30°)17.3 mphScattered Clouds
9:50 AM42.8 °F28.4 °F57 %30.12 in6.2 miNNE (30°)17.3 mphPartly Cloudy
10:50 AM42.8 °F19.4 °F39 %30.12 in6.2 miNE (40°)17.3 mphPartly Cloudy
11:50 AM44.6 °F19.4 °F37 %30.12 in6.2 miNNE (20°)18.4 mphPartly Cloudy
12:50 PM46.4 °F17.6 °F32 %30.12 inNE (40°)16.1 mphClear
12:50 PM47.0 °F17.0 °F18 %30.13 in37.0 miNE (40°)16.1 mphScattered Clouds
1:50 PM44.6 °F17.6 °F34 %30.12 inNE (40°)15.0 mphClear
2:50 PM46.4 °F19.4 °F34 %30.12 inNE (40°)17.3 mphClear
3:50 PM45.0 °F20.0 °F25 %30.14 in37.0 miNNE (30°)18.4 mphPartly Cloudy
3:50 PM44.6 °F21.2 °F39 %30.12 in6.2 miNNE (30°)18.4 mphScattered Clouds
4:50 PM44.6 °F21.2 °F39 %30.12 in6.2 miNNE (20°)18.4 mphPartly Cloudy
5:50 PM42.8 °F24.8 °F49 %30.15 in6.2 miNNE (30°)18.4 mphMostly Cloudy
6:50 PM41.0 °F24.8 °F53 %30.15 in6.2 miNNE (20°)17.3 mphMostly Cloudy
6:50 PM42.0 °F25.0 °F37 %30.18 in25.0 miNNE (20°)17.3 mphScattered Clouds
7:50 PM41.0 °F26.6 °F57 %30.18 in6.2 miNNE (20°)12.7 mphScattered Clouds
8:50 PM39.2 °F26.6 °F61 %30.21 in6.2 miNorth (10°)8.1 mphMostly Cloudy
9:50 PM38.0 °F25.0 °F47 %30.23 in22.0 miNorth (10°)13.8 mphMostly Cloudy
9:50 PM39.2 °F24.8 °F56 %30.21 in6.2 miNorth (10°)13.8 mphMostly Cloudy
10:50 PM39.2 °F24.8 °F56 %30.21 in6.2 miNorth (10°)11.5 mphMostly Cloudy
11:50 PM37.4 °F26.6 °F65 %30.21 in6.2 miNorth (360°)8.1 mphMostly Cloudy
Hourly data recorded from EGXG, located miles away from York, England







STORIES FROM OUR PARTNERS